Regional Weather Roundup
Issued by NWS

Home | Current Version | Previous Version | Text Only | Print | Product List | Glossary On
Versions: 1 2 3 4 5 6 7 8 9 10 11 12 13 14 15 16 17 18 19 20 21 22 23 24 25 26 27 28 29 30 31 32 33 34 35 36 37 38 39 40 41 42 43 44 45 46 47 48 49 50
000
ASUS43 KMPX 271210
RWRMN
WEATHER ROUNDUP FOR MINNESOTA
NATIONAL WEATHER SERVICE TWIN CITIES/CHANHASSEN MN
700 AM CDT WED MAY 27 2015


NOTE: "FAIR" INDICATES FEW OR NO CLOUDS BELOW 12,000 FEET WITH NO
SIGNIFICANT WEATHER AND/OR OBSTRUCTIONS TO VISIBILITY. N/A MEANS
CURRENT SKY AND/OR WEATHER CONDITIONS ARE NOT AVAILABLE.

MNZ060>063-068>070-271300-
   Twin Cities Metro

CITY           SKY/WX    TMP DP  RH WIND       PRES   REMARKS
TWIN CITIES    PTSUNNY   57  56  96 SW3       29.90R FOG
6HR MIN TEMP:  55; 6HR MAX TEMP:  58; 6HR PCP: TRACE;

ST PAUL        PTSUNNY   57  56  96 CALM      29.91R FOG
CRYSTAL        MOSUNNY   57  56  96 SW5       29.89R
BLAINE         MOSUNNY   57  57 100 S3        29.89R FOG
LAKEVILLE      PTSUNNY   55  54  94 W3        29.91R
EDEN PRAIRIE   PTSUNNY   56  55  97 SW7       29.89R
6HR MIN TEMP:  55; 6HR MAX TEMP:  56; 6HR PCP: TRACE;

SOUTH ST PAUL  PTSUNNY   58  56  96 CALM      29.91R FOG
LAKE ELMO      FAIR      55  55 100 S3        29.91R FOG
$$
MNZ001>005-007-008-013>017-022>024-027-028-271300-
   Northwest Minnesota

CITY           SKY/WX    TMP DP  RH WIND       PRES   REMARKS
BEMIDJI        MOSUNNY   54  51  92 CALM      29.85R
HALLOCK        MOSUNNY   52  43  71 N12G18    29.91R
ROSEAU         MOSUNNY   54  46  76 NW7       29.87R
WARROAD        MOSUNNY   54  46  76 N6        29.87R
THIEF RVR FALL MOSUNNY   55  46  71 NW8       29.88R
CROOKSTON      SUNNY     57  50  77 N15       29.90R
FOSSTON        MOSUNNY   52  52 100 CALM      29.88R
DETROIT LAKES  SUNNY     57  50  77 NW5       29.88R
MOORHEAD       SUNNY     54  50  87 W5        29.89R
PARK RAPIDS    SUNNY     55  51  86 CALM      29.85R
MAHNOMEN       FAIR      53  50  90 W3        29.87R
$$
MNZ006-009>011-018-025>026-271300-
   North Central Minnesota

CITY           SKY/WX    TMP DP  RH WIND       PRES   REMARKS
BAUDETTE       SUNNY     56  49  77 NW8       29.83R
FLAG ISLAND    SUNNY     52  46  82 NW13      29.83R
INTL FALLS     SUNNY     51  49  92 W3        29.81R
6HR MIN TEMP:  45; 6HR MAX TEMP:  58;

WASKISH        SUNNY     57  52  82 CALM      29.84R
BIG FORK       SUNNY     50  48  93 CALM      29.83R FOG
LONGVILLE      SUNNY     50  50 100 CALM      29.84R
GRAND RAPIDS   SUNNY     50  46  87 CALM      29.84R
CRANE LAKE     MOSUNNY   46  46 100 CALM      29.81R
ORR            MOSUNNY   52  50  93 CALM      29.78R
COOK           MOSUNNY   50  48  93 CALM      29.82R
WALKER         FAIR      52  50  93 CALM      29.84R
$$
MNZ012-019>021-037-271300-
   Northeast Minnesota

CITY           SKY/WX    TMP DP  RH WIND       PRES   REMARKS
DULUTH         PTSUNNY   58  51  78 W9        29.82R
6HR MIN TEMP:  52; 6HR MAX TEMP:  58;

HIBBING        MOSUNNY   48  46  93 CALM      29.82R
EVELETH        PTSUNNY   52  50  93 SW3       29.83R
DULUTH HARBOR  PTSUNNY   55  52  88 SW12      29.82R
TWO HARBORS    PTSUNNY   61  54  77 W8        29.78R
GRAND MARAIS     N/A     41  39  93 SW9       29.74R
G MARAIS ARPRT CLOUDY    57  48  72 NW7       29.78R
$$
MNZ029>031-032-039>041-046>048-054>057-064-271300-
   West Central Minnesota

CITY           SKY/WX    TMP DP  RH WIND       PRES   REMARKS
FERGUS FALLS   SUNNY     54  54 100 NW6       29.89R
WHEATON        SUNNY     57  50  77 W6        29.91R
MORRIS         SUNNY     55  52  88 W5        29.89R
ALEXANDRIA     SUNNY     55  52  89 W3        29.89R
ELBOW LAKE     FAIR      55  51  88 W7        29.89R
WADENA         SUNNY     54  52  94 W5        29.86R
GLENWOOD       SUNNY     55  54  94 W8        29.89R
APPLETON       SUNNY     55  52  88 SW3       29.90R
BENSON         SUNNY     54  50  87 W5        29.90R
ORTONVILLE     SUNNY     59  50  72 W8        29.91R
MADISON        SUNNY     55  50  82 W6        29.91R
WILLMAR        FAIR      54  54 100 SW5       29.92R
$$
MNZ033>034-036-042>043-049>051-058-059-271300-
   Central Minnesota

CITY           SKY/WX    TMP DP  RH WIND       PRES   REMARKS
ST CLOUD       MOSUNNY   53  53 100 S6        29.88R
6HR MIN TEMP:  51; 6HR MAX TEMP:  55;

SAUK CENTRE    FAIR      53  51  94 CALM      29.89R
PAYNESVILLE    SUNNY     49  49 100 S3        29.90R FOG
AITKIN         MOSUNNY   52  46  82 CALM      29.83R
PINE RIVER     SUNNY     50  50 100 CALM      29.88R
BRAINERD       SUNNY     52  51  97 S3        29.85R
STAPLES        SUNNY     50  48  93 CALM      29.86R
LONG PRAIRIE   FAIR      54  52  94 SW3       29.88R
LITTLE FALLS   MOSUNNY   52  50  93 CALM      29.86S FOG
LITCHFIELD     MOSUNNY   55  55 100 SW3       29.90R
BUFFALO        PTSUNNY   55  54  94 S3        29.90R
MAPLE LAKE     PTSUNNY   56  56  99 CALM      29.90R
$$
MNZ037-044-045-052-053-271300-
   East Central Minnesota

CITY           SKY/WX    TMP DP  RH WIND       PRES   REMARKS
PRINCETON      MOSUNNY   57  55  94 CALM      29.88R
MORA           PTSUNNY   54  52  94 CALM      29.87S
CAMBRIDGE      MOSUNNY   59  52  77 SW5       29.86R
RUSH CITY      MOSUNNY   52  52  97 CALM      29.87S
MOOSE LAKE     PTSUNNY   50  50 100 CALM      29.83R
HINCKLEY       FAIR      54  54 100 CALM      29.86R
CLOQUET        PTSUNNY   57  52  82 W7        29.83R
MCGREGOR       PTSUNNY   54  52  94 CALM      29.85R
$$
MNZ071>073-080-081-089-090-097-098-271300-
   Southwest Minnesota

CITY           SKY/WX    TMP DP  RH WIND       PRES   REMARKS
MONTEVIDEO     MOSUNNY   59  52  77 W6        29.91R
GRANITE FALLS  SUNNY     55  51  85 SW6       29.93R
CANBY          SUNNY     60  50  68 W8        29.93R
MARSHALL       SUNNY     55  46  71 W10       29.93R
REDWOOD FALLS  SUNNY     56  51  84 W6        29.91R
OLIVIA         SUNNY     50  46  87 SW5       29.90R
PIPESTONE      SUNNY     50  48  93 W5        29.97R
WINDOM         MOSUNNY   54  52  94 SW7       29.95R
WORTHINGTON    SUNNY     55  48  76 W9        29.97S
JACKSON        MOSUNNY   54  52  94 SW8       29.97R
TRACY          SUNNY     59  51  75 W8        29.94S
SLAYTON        SUNNY     56  51  81 W14       29.97R
$$
MNZ065>067-074>077-082>085-091>093-271300-
   South Central Minnesota

CITY           SKY/WX    TMP DP  RH WIND       PRES   REMARKS
MANKATO        PTSUNNY   55  54  94 S5        29.93R
NEW ULM        PTSUNNY   55  54  94 SW6       29.92R
ST JAMES       PTSUNNY   57  55  94 SW8       29.95R
FAIRMONT       PTSUNNY   57  52  82 SW6       29.94S
GLENCOE        PTSUNNY   56  56  98 CALM      29.91R
FARIBAULT      PTSUNNY   55  55 100 S3        29.93R FOG
OWATONNA       PTSUNNY   55  55 100 SW5       29.94R FOG
WASECA         PTSUNNY   54  52  94 SW5       29.95R FOG
ALBERT LEA     PTSUNNY   57  55  94 W5        29.95R
$$
MNZ078>079-086>088-094>096-271300-
   Southeast Minnesota

CITY           SKY/WX    TMP DP  RH WIND       PRES   REMARKS
ROCHESTER      PTSUNNY   56  55  97 W8        29.95R FOG
6HR MIN TEMP:  55; 6HR MAX TEMP:  57; 6HR PCP:  0.04;

RED WING       CLOUDY    57  55  94 W3        29.91R FOG
STANTON        CLOUDY    57  55  92 S3        29.91R FOG
DODGE CENTER   CLOUDY    57  55  94 W8        29.94R FOG
WINONA         CLOUDY    59  55  88 NW5       29.92R
AUSTIN         PTSUNNY   55  55 100 CALM      29.94R FOG
PRESTON        PTSUNNY   55  54  94 NW9       29.94R FOG
$$
ABBREVIATIONS USED IN REMARKS
   TC - TEMPERATURES IN CELSIUS
  WCI - WIND CHILL INDEX
   HX - HEAT INDEX
  VSB - VISIBILITY
$$



USA.gov is the U.S. government's official web portal to all federal, state and local government web resources and services.